| time (UTC) | temp F | wind direction | speed MPH | gust MPH | rain 1hr in | rain 24hr in | rain mn in | humidity % | barometer mb |
| 20260906203027 | 78 | 231 | 6.0 | 9.0 | 0.00 | 0.00 | 0.00 | 67 | 1012.9 |
| 20260906201535 | 77 | 227 | 6.0 | 9.0 | 0.00 | 0.00 | 0.00 | 67 | 1013.1 |
| 20260906200016 | 77 | 238 | 7.0 | 13.0 | 0.00 | 0.00 | 0.00 | 70 | 1013.5 |
| 20260906194515 | 76 | 264 | 10.0 | 14.0 | 0.00 | 0.00 | 0.00 | 72 | 1013.9 |
| 20260906193021 | 75 | 264 | 10.0 | 14.0 | 0.00 | 0.00 | 0.00 | 73 | 1014.1 |
| 20260906191513 | 75 | 274 | 9.0 | 12.0 | 0.00 | 0.00 | 0.00 | 77 | 1014.3 |
| 20260906190055 | 75 | 293 | 6.0 | 12.0 | 0.00 | 0.00 | 0.00 | 78 | 1014.2 |
| 20260906184555 | 75 | 278 | 5.0 | 11.0 | 0.00 | 0.00 | 0.00 | 76 | 1014.1 |
| 20260906183037 | 75 | 252 | 11.0 | 14.0 | 0.00 | 0.00 | 0.00 | 76 | 1014.2 |
| 20260906181539 | 75 | 243 | 13.0 | 19.0 | 0.00 | 0.00 | 0.00 | 75 | 1014.3 |
| 20260906180017 | 75 | 245 | 16.0 | 22.0 | 0.00 | 0.00 | 0.00 | 74 | 1013.9 |
| 20260906174522 | 76 | 259 | 16.0 | 21.0 | 0.00 | 0.00 | 0.00 | 74 | 1013.8 |
| 20260906173116 | 77 | 240 | 12.0 | 23.0 | 0.00 | 0.00 | 0.00 | 78 | 1013.7 |
| 20260906171557 | 77 | 233 | 17.0 | 25.0 | 0.00 | 0.00 | 0.00 | 79 | 1014.2 |
| 20260906170100 | 77 | 267 | 19.0 | 28.0 | 0.00 | 0.00 | 0.00 | 84 | 1014.2 |
| 20260906164537 | 77 | 220 | 12.0 | 18.0 | 0.00 | 0.00 | 0.00 | 89 | 1014.5 |
| 20260906163036 | 77 | 205 | 11.0 | 17.0 | 0.00 | 0.00 | 0.00 | 90 | 1014.6 |
| 20260906161527 | 77 | 156 | 10.0 | 18.0 | 0.00 | 0.00 | 0.00 | 90 | 1014.5 |
| 20260906160022 | 77 | 170 | 10.0 | 21.0 | 0.00 | 0.00 | 0.00 | 90 | 1014.3 |
| 20260906154525 | 77 | 159 | 11.0 | 18.0 | 0.00 | 0.00 | 0.00 | 90 | 1014.1 |
| 20260906153032 | 77 | 155 | 9.0 | 17.0 | 0.00 | 0.00 | 0.00 | 90 | 1014.1 |
| 20260906151518 | 77 | 123 | 7.0 | 16.0 | 0.00 | 0.00 | 0.00 | 90 | 1013.4 |
| 20260906150022 | 77 | 150 | 10.0 | 15.0 | 0.00 | 0.00 | 0.00 | 90 | 1013.8 |
| 20260906144513 | 76 | 74 | 8.0 | 11.0 | 0.00 | 0.00 | 0.00 | 90 | 1013.5 |
| 20260906143017 | 75 | 98 | 5.0 | 9.0 | 0.00 | 0.00 | 0.00 | 91 | 1013.5 |
| 20260906141553 | 74 | 99 | 2.0 | 5.0 | 0.00 | 0.00 | 0.00 | 91 | 1013.7 |
| 20260906140047 | 73 | 84 | 1.0 | 3.0 | 0.00 | 0.00 | 0.00 | 92 | 1013.5 |
| 20260906134542 | 72 | 55 | 2.0 | 3.0 | 0.00 | 0.00 | 0.00 | 92 | 1013.6 |
| 20260906133037 | 71 | 70 | 0.0 | 0.0 | 0.00 | 0.00 | 0.00 | 92 | 1013.6 |
| 20260906131531 | 70 | 307 | 4.0 | 8.0 | 0.00 | 0.00 | 0.00 | 92 | 1013.8 |
| 20260906130031 | 71 | 340 | 0.0 | 3.0 | 0.00 | 0.00 | 0.00 | 93 | 1013.5 |
| 20260906124524 | 70 | 30 | 2.0 | 4.0 | 0.00 | 0.00 | 0.00 | 93 | 1013.2 |
| 20260906123037 | 69 | 43 | 3.0 | 4.0 | 0.00 | 0.00 | 0.00 | 92 | 1012.9 |
| 20260906121522 | 70 | 58 | 1.0 | 3.0 | 0.00 | 0.00 | 0.00 | 93 | 1012.7 |
| 20260906120021 | 71 | 58 | 3.0 | 5.0 | 0.00 | 0.00 | 0.00 | 92 | 1012.4 |
| 20260906114503 | 71 | 86 | 0.0 | 5.0 | 0.00 | 0.01 | 0.00 | 92 | 1012.4 |
| 20260906113003 | 71 | 89 | 3.0 | 7.0 | 0.00 | 0.01 | 0.00 | 92 | 1012.3 |
| 20260906111551 | 71 | 84 | 5.0 | 7.0 | 0.00 | 0.01 | 0.00 | 92 | 1012.4 |
| 20260906110055 | 71 | 89 | 3.0 | 6.0 | 0.00 | 0.01 | 0.00 | 92 | 1012.5 |
| 20260906104552 | 71 | 83 | 2.0 | 8.0 | 0.00 | 0.01 | 0.00 | 92 | 1012.6 |
| 20260906103102 | 70 | 80 | 3.0 | 4.0 | 0.00 | 0.01 | 0.00 | 92 | 1012.7 |
| 20260906101548 | 70 | 63 | 3.0 | 5.0 | 0.00 | 0.01 | 0.00 | 91 | 1012.7 |
| 20260906100047 | 71 | 63 | 0.0 | 0.0 | 0.00 | 0.01 | 0.00 | 90 | 1012.8 |
| 20260906094547 | 71 | 124 | 0.0 | 0.0 | 0.00 | 0.01 | 0.00 | 90 | 1013.1 |
| 20260906093050 | 71 | 90 | 0.0 | 3.0 | 0.00 | 0.01 | 0.00 | 89 | 1013.0 |
| 20260906091528 | 70 | 77 | 0.0 | 4.0 | 0.00 | 0.01 | 0.00 | 90 | 1013.2 |
| 20260906090041 | 70 | 81 | 0.0 | 1.0 | 0.00 | 0.01 | 0.00 | 90 | 1013.1 |
| 20260906084514 | 70 | 63 | 0.0 | 4.0 | 0.00 | 0.01 | 0.00 | 90 | 1013.0 |
| 20260906083014 | 70 | 56 | 3.0 | 4.0 | 0.00 | 0.01 | 0.00 | 90 | 1013.0 |
| 20260906081512 | 71 | 76 | 2.0 | 5.0 | 0.00 | 0.01 | 0.00 | 89 | 1012.8 |
| 20260906080010 | 71 | 75 | 0.0 | 4.0 | 0.00 | 0.01 | 0.00 | 90 | 1012.7 |
| 20260906074509 | 70 | 61 | 4.0 | 5.0 | 0.00 | 0.01 | 0.00 | 90 | 1012.6 |
| 20260906073008 | 70 | 60 | 2.0 | 4.0 | 0.00 | 0.01 | 0.00 | 90 | 1012.6 |
| 20260906071507 | 70 | 88 | 0.0 | 4.0 | 0.00 | 0.01 | 0.00 | 89 | 1012.4 |
| 20260906070004 | 71 | 93 | 3.0 | 5.0 | 0.00 | 0.01 | 0.00 | 88 | 1012.3 |
| 20260906064549 | 72 | 105 | 0.0 | 4.0 | 0.00 | 0.01 | 0.00 | 86 | 1012.3 |
| 20260906063050 | 72 | 116 | 3.0 | 7.0 | 0.00 | 0.01 | 0.00 | 85 | 1012.3 |
| 20260906061545 | 73 | 140 | 3.0 | 7.0 | 0.00 | 0.01 | 0.00 | 84 | 1012.4 |
| 20260906060042 | 73 | 143 | 3.0 | 7.0 | 0.00 | 0.01 | 0.00 | 84 | 1012.3 |
| 20260906054541 | 73 | 108 | 6.0 | 10.0 | 0.00 | 0.01 | 0.01 | 83 | 1012.1 |
| 20260906053039 | 74 | 117 | 4.0 | 9.0 | 0.00 | 0.01 | 0.01 | 82 | 1012.4 |
| 20260906051554 | 74 | 89 | 8.0 | 10.0 | 0.00 | 0.01 | 0.01 | 83 | 1012.2 |
| 20260906050042 | 74 | 79 | 5.0 | 9.0 | 0.00 | 0.01 | 0.01 | 82 | 1012.4 |
| 20260906044526 | 74 | 86 | 4.0 | 6.0 | 0.00 | 0.01 | 0.01 | 84 | 1012.3 |
| 20260906043026 | 74 | 86 | 5.0 | 6.0 | 0.00 | 0.01 | 0.01 | 83 | 1012.4 |
| 20260906041525 | 75 | 58 | 3.0 | 6.0 | 0.00 | 0.01 | 0.01 | 83 | 1012.5 |
| 20260906040033 | 75 | 58 | 7.0 | 10.0 | 0.00 | 0.01 | 0.01 | 81 | 1012.1 |
| 20260906034532 | 76 | 58 | 7.0 | 9.0 | 0.00 | 0.01 | 0.01 | 79 | 1011.9 |
| 20260906033023 | 75 | 40 | 9.0 | 12.0 | 0.00 | 0.01 | 0.01 | 81 | 1011.7 |
| 20260906031534 | 75 | 19 | 8.0 | 11.0 | 0.00 | 0.01 | 0.01 | 81 | 1011.5 |
| 20260906030022 | 77 | 99 | 4.0 | 5.0 | 0.00 | 0.01 | 0.01 | 77 | 1011.5 |
| 20260906024510 | 77 | 147 | 3.0 | 6.0 | 0.00 | 0.01 | 0.01 | 78 | 1011.8 |
| 20260906023009 | 77 | 234 | 0.0 | 4.0 | 0.00 | 0.01 | 0.01 | 76 | 1012.3 |
| 20260906021509 | 78 | 209 | 3.0 | 5.0 | 0.00 | 0.01 | 0.01 | 74 | 1012.1 |
| 20260906020014 | 80 | 261 | 1.0 | 3.0 | 0.00 | 0.01 | 0.01 | 69 | 1012.3 |
| 20260906014508 | 79 | 279 | 1.0 | 3.0 | 0.00 | 0.01 | 0.01 | 72 | 1012.2 |
| 20260906013007 | 79 | 154 | 0.0 | 1.0 | 0.00 | 0.01 | 0.01 | 71 | 1012.0 |
| 20260906011506 | 80 | 157 | 0.0 | 3.0 | 0.00 | 0.01 | 0.01 | 70 | 1012.2 |
| 20260906010006 | 81 | 44 | 3.0 | 4.0 | 0.00 | 0.01 | 0.01 | 67 | 1012.1 |
| 20260906004548 | 82 | 274 | 0.0 | 0.0 | 0.00 | 0.01 | 0.01 | 64 | 1012.5 |
| 20260906003048 | 84 | 274 | 1.0 | 3.0 | 0.00 | 0.01 | 0.01 | 61 | 1012.8 |
| 20260906001530 | 85 | 238 | 0.0 | 0.0 | 0.00 | 0.01 | 0.01 | 59 | 1012.4 |
| 20260906000029 | 85 | 142 | 0.0 | 0.0 | 0.00 | 0.01 | 0.01 | 58 | 1012.3 |
| 20260905234511 | 85 | 118 | 0.0 | 3.0 | 0.00 | 0.01 | 0.01 | 59 | 1012.2 |
| 20260905233011 | 85 | 113 | 2.0 | 7.0 | 0.00 | 0.01 | 0.01 | 58 | 1012.0 |
| 20260905231555 | 86 | 103 | 6.0 | 13.0 | 0.00 | 0.01 | 0.01 | 55 | 1011.5 |
| 20260905230059 | 87 | 83 | 5.0 | 15.0 | 0.00 | 0.01 | 0.01 | 54 | 1011.1 |
| 20260905224534 | 89 | 82 | 10.0 | 17.0 | 0.00 | 0.01 | 0.01 | 52 | 1010.5 |
| 20260905223038 | 89 | 105 | 12.0 | 24.0 | 0.00 | 0.01 | 0.01 | 52 | 1010.1 |
| 20260905221515 | 89 | 101 | 13.0 | 20.0 | 0.00 | 0.01 | 0.01 | 52 | 1010.2 |
| 20260905220013 | 90 | 86 | 12.0 | 16.0 | 0.00 | 0.01 | 0.01 | 52 | 1010.6 |
| 20260905214558 | 90 | 80 | 10.0 | 15.0 | 0.00 | 0.01 | 0.01 | 53 | 1010.7 |
| 20260905213055 | 90 | 127 | 9.0 | 15.0 | 0.00 | 0.01 | 0.01 | 53 | 1010.9 |
| 20260905211538 | 89 | 121 | 6.0 | 17.0 | 0.00 | 0.01 | 0.01 | 54 | 1011.0 |
| 20260905210046 | 89 | 89 | 12.0 | 19.0 | 0.00 | 0.01 | 0.01 | 55 | 1011.1 |
| 20260905204514 | 88 | 93 | 13.0 | 18.0 | 0.00 | 0.01 | 0.01 | 54 | 1011.1 |